Weather History for Bloomington, IN

Change the Weather History Date:

Tuesday, July 22, 2014

  Actual Average Record
Temperature  
Mean Temperature 74 °F 74 °F  
Max Temperature 88 °F 84 °F 95 °F (2011)
Min Temperature 60 °F 64 °F 51 °F (2000)
Degree Days  
Heating Degree Days 0 0  
Month to date heating degree days 2 0  
Since 1 June heating degree days 5 15  
Since 1 July heating degree days 2 0  
Cooling Degree Days 9 9  
Month to date cooling degree days 121 198  
Year to date cooling degree days 520 488  
Since 1 June cooling degree days 394 406  
Growing Degree Days 24 (Base 50)    
Moisture  
Dew Point 64 °F    
Average Humidity 76    
Maximum Humidity 100    
Minimum Humidity 51    
Precipitation  
Precipitation 0.00 in 0.17 in 1.30 in (2002)
Month to date precipitation 2.05 3.90  
Year to date precipitation 25.82 28.68  
Sea Level Pressure  
Sea Level Pressure 30.08 in    
Wind  
Wind Speed 3 mph (WSW)    
Max Wind Speed 13 mph    
Max Gust Speed 16 mph    
Visibility 4 miles    
Events Fog    
T = Trace of Precipitation, MM = Missing Value Source: NWS Daily Summary

Daily Weather History Graph

Daily Weather History Graph

Search for Another Location

Airport:

Trip Planner

Search our weather history database for the weather conditions in past years. The results will help you decide how hot, cold, wet, or windy it might be!

Date:

Astronomy

Jul. 22, 2014 Rise Set
Actual Time 6:38 AM EDT 9:07 PM EDT
Civil Twilight 6:07 AM EDT 9:37 PM EDT
Nautical Twilight 5:29 AM EDT 10:15 PM EDT
Astronomical Twilight 4:47 AM EDT 10:57 PM EDT
Moon 3:10 AM EDT 5:44 PM EDT
Length of Visible Light 15h 30m
Length of Day
14h 28m
Waning Crescent, 16% of the Moon is Illuminated
Jul 22
Waning Crescent
Jul 26
New
Aug 3
First Quarter
Aug 10
Full
Aug 17
Last Quarter

Hourly Weather History & Observations

Time (EDT) Temp. Heat Index Dew Point Humidity Pressure Visibility Wind Dir Wind Speed Gust Speed Precip Events Conditions
12:20 AM 66.0 °F - 64.0 °F 93% 30.10 in 2.5 mi Calm Calm - N/A   Clear
12:28 AM 66.0 °F - 64.0 °F 93% 30.10 in 4.0 mi Calm Calm - N/A   Clear
12:38 AM 66.0 °F - 64.0 °F 93% 30.10 in 2.5 mi Calm Calm - N/A   Clear
12:46 AM 66.0 °F - 64.0 °F 93% 30.10 in 0.8 mi Calm Calm - N/A   Clear
12:53 AM 64.9 °F - 63.0 °F 93% 30.08 in 0.5 mi Calm Calm - N/A Fog Fog
12:59 AM 66.0 °F - 63.0 °F 90% 30.10 in 2.0 mi Calm Calm - N/A   Clear
1:06 AM 66.0 °F - 64.0 °F 93% 30.10 in 4.0 mi Calm Calm - N/A   Clear
1:35 AM 64.0 °F - 62.1 °F 93% 30.10 in 0.8 mi Calm Calm - N/A   Clear
1:44 AM 64.0 °F - 62.1 °F 93% 30.10 in 0.2 mi Calm Calm - N/A Fog Fog
1:51 AM 64.4 °F - 62.6 °F 94% 30.10 in 0.5 mi Calm Calm - N/A Fog Fog
1:53 AM 64.0 °F - 62.1 °F 93% 30.08 in 0.5 mi Calm Calm - N/A Fog Fog
2:00 AM 64.0 °F - 62.1 °F 93% 30.10 in 0.2 mi Calm Calm - N/A Fog Fog
2:09 AM 64.9 °F - 62.1 °F 90% 30.09 in 1.0 mi Calm Calm - N/A   Clear
2:13 AM 64.9 °F - 62.1 °F 90% 30.10 in 4.0 mi Calm Calm - N/A   Clear
2:53 AM 63.0 °F - 62.1 °F 97% 30.07 in 3.0 mi Calm Calm - N/A   Clear
3:01 AM 63.0 °F - 61.0 °F 93% 30.09 in 2.0 mi Calm Calm - N/A   Clear
3:21 AM 63.0 °F - 62.1 °F 97% 30.09 in 1.5 mi Calm Calm - N/A   Clear
3:27 AM 63.0 °F - 61.0 °F 93% 30.09 in 3.0 mi Calm Calm - N/A   Clear
3:46 AM 63.0 °F - 61.0 °F 93% 30.09 in 1.8 mi Calm Calm - N/A   Clear
3:53 AM 63.0 °F - 61.0 °F 93% 30.07 in 1.0 mi Calm Calm - N/A   Clear
4:05 AM 63.0 °F - 61.0 °F 93% 30.09 in 0.5 mi Calm Calm - N/A Fog Fog
4:34 AM 62.1 °F - 60.1 °F 93% 30.10 in 2.5 mi Calm Calm - N/A   Clear
4:46 AM 63.0 °F - 60.1 °F 90% 30.10 in 1.0 mi Calm Calm - N/A   Clear
4:53 AM 62.1 °F - 60.1 °F 93% 30.08 in 3.0 mi Calm Calm - N/A   Clear
5:04 AM 62.1 °F - 60.1 °F 93% 30.10 in 2.0 mi Calm Calm - N/A   Clear
5:20 AM 61.0 °F - 59.0 °F 93% 30.10 in 2.0 mi Calm Calm - N/A   Scattered Clouds
5:29 AM 61.0 °F - 60.1 °F 97% 30.11 in 1.0 mi Calm Calm - N/A   Mist
5:33 AM 62.1 °F - 60.1 °F 93% 30.11 in 0.2 mi Calm Calm - N/A Fog Fog
5:53 AM 62.1 °F - 60.1 °F 93% 30.09 in 0.5 mi Calm Calm - N/A Fog Fog
6:41 AM 63.0 °F - 61.0 °F 93% 30.12 in 0.2 mi Calm Calm - N/A Fog Fog
6:53 AM 62.1 °F - 60.1 °F 93% 30.10 in 4.0 mi Calm Calm - N/A   Clear
7:53 AM 66.0 °F - 63.0 °F 90% 30.10 in 10.0 mi Calm Calm - N/A   Clear
8:53 AM 73.9 °F - 66.9 °F 79% 30.10 in 8.0 mi Calm Calm - N/A   Clear
10:53 AM 82.0 °F 84.5 °F 66.9 °F 60% 30.09 in 10.0 mi WSW 5.8 mph - N/A   Clear
11:53 AM 84.0 °F 86.5 °F 66.9 °F 56% 30.09 in 10.0 mi South 6.9 mph - N/A   Partly Cloudy
12:53 PM 84.9 °F 87.1 °F 66.0 °F 53% 30.08 in 10.0 mi Variable 6.9 mph - N/A   Partly Cloudy
1:53 PM 86.0 °F 88.2 °F 66.0 °F 51% 30.07 in 10.0 mi SW 10.4 mph - N/A   Partly Cloudy
2:53 PM 86.0 °F 88.8 °F 66.9 °F 53% 30.06 in 10.0 mi WSW 8.1 mph - N/A   Partly Cloudy
4:53 PM 87.1 °F 90.6 °F 68.0 °F 53% 30.05 in 10.0 mi WSW 6.9 mph - N/A   Clear
5:53 PM 86.0 °F 89.4 °F 68.0 °F 55% 30.03 in 10.0 mi WSW 5.8 mph - N/A   Clear
6:53 PM 84.9 °F 88.8 °F 69.1 °F 59% 30.01 in 10.0 mi WSW 5.8 mph - N/A   Clear
7:53 PM 82.9 °F 87.5 °F 71.1 °F 67% 30.01 in 10.0 mi West 3.5 mph - N/A   Clear
8:53 PM 78.1 °F - 71.1 °F 79% 30.04 in 10.0 mi NW 3.5 mph - N/A   Clear
9:53 PM 75.0 °F - 70.0 °F 84% 30.04 in 8.0 mi SW 3.5 mph - N/A   Clear
10:53 PM 71.1 °F - 68.0 °F 90% 30.03 in 5.0 mi Calm Calm - N/A   Clear
11:53 PM 73.9 °F - 69.1 °F 85% 30.01 in 9.0 mi SSW 4.6 mph - N/A   Mostly Cloudy